Decatur, AL

12:21 PM CDT on May 23, 2017 (GMT -0500)
Pryor Regional

Weather History for KDCU - February, 2013

Change the Weather History Date:

Tuesday, February 12, 2013

  Actual Average Record
Temperature  
Mean Temperature 46 °F -  
Max Temperature 51 °F 52 °F 74 °F (1961)
Min Temperature 41 °F 30 °F 7 °F (1981)
Degree Days  
Heating Degree Days 19    
Moisture  
Dew Point 36 °F    
Average Humidity 71    
Maximum Humidity 86    
Minimum Humidity 46    
Precipitation  
Precipitation 0.22 in - - ()
Sea Level Pressure  
Sea Level Pressure 30.01 in    
Wind  
Wind Speed 4 mph (ENE)    
Max Wind Speed 10 mph    
Max Gust Speed -    
Visibility 10 miles    
Events Rain    
Averages and records for this station are not official NWS values.
T = Trace of Precipitation, MM = Missing Value Source: NWS Daily Summary

Daily Weather History Graph

Daily Weather History Graph

Search for Another Location

Airport or City:

Trip Planner

Search our weather history database for the weather conditions in past years. The results will help you decide how hot, cold, wet, or windy it might be!

Date:

Astronomy

Feb. 12, 2013 Rise Set
Actual Time 6:36 AM CST 5:28 PM CST
Civil Twilight 6:10 AM CST 5:54 PM CST
Nautical Twilight 5:40 AM CST 6:23 PM CST
Astronomical Twilight 5:11 AM CST 6:53 PM CST
Moon 7:41 AM CST (2/12) 8:18 PM CST (2/12)
Length of Visible Light 11h 44m
Length of Day
10h 52m
Waxing Crescent, 7% of the Moon is Illuminated
Feb 12
Waxing Crescent
Feb 17
First Quarter
Feb 25
Full
Mar 4
Last Quarter
Mar 11
New

Hourly Weather History & Observations

Time (CST) Temp. Windchill Dew Point Humidity Pressure Visibility Wind Dir Wind Speed Gust Speed Precip Events Conditions
12:53 AM 45.0 °F - 39.0 °F 80% 30.16 in 10.0 mi Calm Calm - N/A   Clear
1:53 AM 44.1 °F 42.5 °F 39.9 °F 85% 30.14 in 10.0 mi ENE 3.5 mph - N/A   Clear
2:53 AM 44.1 °F - 39.0 °F 82% 30.17 in 10.0 mi Calm Calm - N/A   Mostly Cloudy
3:53 AM 42.1 °F - 35.1 °F 76% 30.15 in 10.0 mi Calm Calm - N/A   Clear
4:53 AM 41.0 °F 39.0 °F 36.0 °F 82% 30.17 in 10.0 mi North 3.5 mph - N/A   Partly Cloudy
5:53 AM 42.1 °F 38.4 °F 33.1 °F 70% 30.13 in 10.0 mi ENE 5.8 mph - N/A   Clear
6:53 AM 42.1 °F 38.4 °F 32.0 °F 67% 30.12 in 10.0 mi East 5.8 mph - N/A   Clear
7:53 AM 46.0 °F 43.1 °F 32.0 °F 58% 30.12 in 10.0 mi ENE 5.8 mph - N/A   Clear
8:53 AM 48.9 °F - 33.1 °F 54% 30.09 in 10.0 mi ENE 10.4 mph - N/A   Clear
9:53 AM 48.9 °F - 32.0 °F 52% 30.10 in 10.0 mi ESE 3.5 mph - N/A   Clear
10:53 AM 50.0 °F - 30.0 °F 46% 30.11 in 10.0 mi ESE 4.6 mph - N/A   Clear
11:53 AM 51.1 °F - 30.9 °F 46% 30.06 in 10.0 mi East 4.6 mph - N/A   Clear
12:53 PM 51.1 °F - 32.0 °F 48% 30.05 in 10.0 mi SE 5.8 mph - N/A   Overcast
1:53 PM 51.1 °F - 30.9 °F 46% 30.03 in 10.0 mi ESE 4.6 mph - 0.00 in Rain Light Rain
2:53 PM 48.9 °F - 34.0 °F 56% 29.98 in 10.0 mi East 3.5 mph - 0.00 in Rain Light Rain
3:53 PM 45.0 °F 42.6 °F 37.9 °F 76% 29.97 in 5.0 mi NE 4.6 mph - 0.07 in Rain Rain
4:53 PM 44.1 °F 39.5 °F 39.0 °F 82% 29.92 in 10.0 mi East 8.1 mph - 0.07 in Rain Light Rain
5:53 PM 44.1 °F 40.8 °F 39.9 °F 85% 29.91 in 10.0 mi ENE 5.8 mph - 0.03 in Rain Light Rain
6:53 PM 43.0 °F 40.3 °F 39.0 °F 86% 29.92 in 10.0 mi ENE 4.6 mph - 0.02 in   Overcast
7:53 PM 43.0 °F 38.8 °F 39.0 °F 86% 29.90 in 10.0 mi East 6.9 mph - 0.03 in   Overcast
8:53 PM 43.0 °F 40.3 °F 39.0 °F 86% 29.87 in 10.0 mi East 4.6 mph - 0.00 in Rain Light Rain
9:53 PM 44.1 °F 40.8 °F 39.9 °F 85% 29.84 in 10.0 mi NE 5.8 mph - 0.00 in   Overcast
10:53 PM 44.1 °F 40.8 °F 39.0 °F 82% 29.81 in 10.0 mi ENE 5.8 mph - 0.00 in   Overcast
11:21 PM 44.6 °F 43.1 °F 39.2 °F 81% 29.80 in 10.0 mi East 3.5 mph - N/A   Overcast
11:53 PM 45.0 °F 42.6 °F 39.9 °F 82% 29.78 in 10.0 mi ENE 4.6 mph - N/A   Overcast